FW8630 Weather Reports


time (UTC)temp
F
wind
direction
speed
knots
gust
knots
rain 1hr
in
rain 24hr
in
rain mn
in
humidity
%
barometer
mb
20260509181527 50 71 2.6 7.8 0.00 0.00 0.00 69 1023.2
20260509180026 51 75 2.6 5.2 0.00 0.00 0.00 67 1023.2
20260509174525 52 74 1.7 7.0 0.00 0.00 0.00 65 1023.2
20260509173052 53 65 3.5 8.7 0.00 0.00 0.00 61 1023.3
20260509171529 54 44 3.5 8.7 0.00 0.00 0.00 59 1023.3
20260509170022 55 61 4.3 11.3 0.00 0.00 0.00 53 1023.5
20260509164521 56 20 6.1 12.2 0.00 0.00 0.00 47 1023.5
20260509163023 57 78 5.2 11.3 0.00 0.00 0.00 49 1023.6
20260509161517 60 80 5.2 10.4 0.00 0.00 0.00 53 1023.7
20260509160021 60 39 6.1 12.2 0.00 0.00 0.00 55 1023.8
20260509154515 59 42 5.2 11.3 0.00 0.00 0.00 55 1023.9
20260509153022 60 86 6.1 12.2 0.00 0.00 0.00 53 1024.1
20260509151511 61 72 4.3 10.4 0.00 0.00 0.00 56 1024.1
20260509150011 62 35 6.1 12.2 0.00 0.00 0.00 57 1024.2
20260509144507 60 79 3.5 9.6 0.00 0.00 0.00 60 1024.4
20260509143011 60 313 0.9 3.5 0.00 0.00 0.00 70 1024.5
20260509141506 57 309 1.7 6.1 0.00 0.00 0.00 76 1024.5
20260509140006 56 246 1.7 6.1 0.00 0.00 0.00 82 1024.6
20260509134504 56 238 2.6 6.1 0.00 0.00 0.00 81 1024.6
20260509133003 56 287 1.7 7.8 0.00 0.00 0.00 85 1024.6
20260509131502 58 284 3.5 7.8 0.00 0.00 0.00 78 1024.7
20260509130003 59 232 2.6 6.1 0.00 0.00 0.00 74 1024.8
20260509124603 61 200 2.6 6.1 0.00 0.00 0.00 63 1024.9
20260509123123 61 122 4.3 11.3 0.00 0.00 0.00 63 1024.9
20260509121556 61 137 5.2 12.2 0.00 0.00 0.00 66 1025.1
20260509120055 60 44 3.5 9.6 0.00 0.00 0.00 63 1025.0
20260509114624 60 123 2.6 8.7 0.00 0.00 0.00 65 1025.1
20260509113105 60 60 5.2 10.4 0.00 0.00 0.00 64 1025.2
20260509111548 59 5 6.1 11.3 0.00 0.00 0.00 67 1025.3
20260509110056 59 38 2.6 13.9 0.00 0.00 0.00 66 1025.3
20260509104542 58 33 4.3 10.4 0.00 0.00 0.00 67 1025.4
20260509103041 58 105 3.5 11.3 0.00 0.00 0.00 68 1025.5
20260509101552 58 57 2.6 13.0 0.00 0.00 0.00 68 1025.5
20260509100036 58 47 6.1 13.9 0.00 0.00 0.00 68 1025.6
20260509094535 58 336 5.2 9.6 0.00 0.00 0.00 70 1025.5
20260509093031 57 5 6.1 11.3 0.00 0.00 0.00 71 1025.6
20260509091531 56 111 5.2 13.0 0.00 0.00 0.00 71 1025.7
20260509090027 56 86 6.1 13.0 0.00 0.00 0.00 72 1025.8
20260509084524 55 40 6.1 11.3 0.00 0.00 0.00 73 1025.7
20260509083022 55 67 5.2 12.2 0.00 0.00 0.00 75 1025.7
20260509081518 55 57 4.3 10.4 0.00 0.00 0.00 74 1025.7
20260509080010 54 347 5.2 11.3 0.00 0.00 0.00 73 1025.8
20260509074511 54 24 5.2 9.6 0.00 0.00 0.00 75 1025.8
20260509073009 54 54 4.3 10.4 0.00 0.00 0.00 73 1025.8
20260509071506 54 38 4.3 10.4 0.00 0.00 0.00 74 1025.8
20260509070004 54 37 4.3 9.6 0.00 0.00 0.00 76 1025.8
20260509064501 54 56 5.2 9.6 0.00 0.00 0.00 76 1025.9
20260509063058 53 68 3.5 10.4 0.00 0.00 0.00 78 1026.1
20260509061605 53 39 6.1 12.2 0.00 0.00 0.00 79 1026.3
20260509060051 52 52 5.2 10.4 0.00 0.00 0.00 80 1026.4
20260509054607 50 88 3.5 10.4 0.00 0.00 0.00 84 1026.5
20260509053042 49 70 6.1 11.3 0.00 0.00 0.00 85 1026.6
20260509051537 47 83 4.3 9.6 0.00 0.00 0.00 87 1026.6
20260509044527 42 57 3.5 5.2 0.00 0.00 0.00 94 1026.5
20260509043022 41 56 2.6 7.8 0.00 0.00 0.00 95 1026.5
20260509041522 40 81 2.6 7.8 0.00 0.00 0.00 96 1026.4
20260509033009 39 64 3.5 7.8 0.00 0.00 0.00 96 1026.7
20260509031521 39 59 2.6 8.7 0.00 0.00 0.00 96 1026.8
20260509030126 39 42 2.6 7.8 0.00 0.00 0.00 96 1026.8
20260509021544 38 71 2.6 5.2 0.00 0.00 0.00 96 1026.8
20260509020045 39 38 1.7 5.2 0.00 0.00 0.00 95 1026.8
20260509014543 39 60 2.6 6.1 0.00 0.00 0.00 95 1026.9
20260509013039 39 49 2.6 6.1 0.00 0.00 0.00 94 1026.8
20260509011539 40 49 2.6 7.8 0.00 0.00 0.00 94 1026.7
20260509010044 40 44 3.5 8.7 0.00 0.00 0.00 93 1026.8
20260509004535 40 40 3.5 7.0 0.00 0.00 0.00 93 1026.7
20260509003033 40 46 4.3 9.6 0.00 0.00 0.00 93 1026.9
20260509001532 40 47 3.5 8.7 0.00 0.00 0.00 92 1027.1
20260509000029 40 38 2.6 6.1 0.00 0.00 0.00 92 1027.1
20260508234527 40 37 3.5 7.8 0.00 0.00 0.00 91 1027.3
20260508233026 40 30 4.3 8.7 0.00 0.00 0.00 91 1027.3
20260508231522 40 53 3.5 7.8 0.00 0.00 0.00 90 1027.2
20260508230020 40 63 3.5 6.1 0.00 0.00 0.00 89 1027.3
20260508224520 40 52 2.6 7.0 0.00 0.00 0.00 88 1027.4
20260508223016 40 80 2.6 5.2 0.00 0.00 0.00 87 1027.5
20260508221514 40 69 2.6 6.1 0.00 0.00 0.00 85 1027.6
20260508220036 40 53 2.6 5.2 0.00 0.00 0.00 85 1027.7
20260508214511 41 40 3.5 5.2 0.00 0.00 0.00 84 1027.8
20260508213010 41 40 1.7 6.1 0.00 0.00 0.00 83 1027.7
20260508211508 41 52 2.6 4.3 0.00 0.00 0.00 83 1027.7
20260508210009 42 51 1.7 4.3 0.00 0.00 0.00 82 1027.7
20260508204508 42 61 1.7 4.3 0.00 0.00 0.00 81 1027.7
20260508203006 43 63 0.9 4.3 0.00 0.00 0.00 80 1027.5
20260508201506 43 53 1.7 4.3 0.00 0.00 0.00 79 1027.4
20260508200004 44 54 1.7 3.5 0.00 0.00 0.00 78 1027.4
20260508194504 44 28 2.6 4.3 0.00 0.00 0.00 78 1027.2
20260508193004 45 47 1.7 4.3 0.00 0.00 0.00 76 1027.3
20260508191505 46 29 3.5 8.7 0.00 0.00 0.00 75 1027.3
20260508190003 46 22 3.5 7.8 0.00 0.00 0.00 74 1027.2
20260508184504 47 58 4.3 11.3 0.00 0.00 0.00 74 1027.1
20260508183100 47 39 5.2 9.6 0.00 0.00 0.00 72 1027.0